TimeCDT,TemperatureF,Dew PointF,Humidity,Sea Level PressureIn,VisibilityMPH,Wind Direction,Wind SpeedMPH,Gust SpeedMPH,PrecipitationIn,Events,Conditions,WindDirDegrees,DateUTC
12:53 AM,28.0,25.0,88,30.40,10.0,North,10.4,-,N/A,,Clear,360,2012-10-26 05:53:00
1:51 AM,30.2,26.6,86,30.37,10.0,North,10.4,-,N/A,,Mostly Cloudy,10,2012-10-26 06:51:00
1:53 AM,30.0,26.1,85,30.42,10.0,North,9.2,-,N/A,,Mostly Cloudy,10,2012-10-26 06:53:00
2:53 AM,30.9,26.1,82,30.42,10.0,NNE,10.4,-,N/A,,Overcast,20,2012-10-26 07:53:00
3:53 AM,32.0,25.0,75,30.43,10.0,NNE,10.4,-,N/A,,Overcast,30,2012-10-26 08:53:00
4:53 AM,32.0,25.0,75,30.43,10.0,NNE,11.5,-,N/A,,Overcast,30,2012-10-26 09:53:00
5:53 AM,32.0,25.0,75,30.45,10.0,NNE,13.8,-,N/A,,Overcast,30,2012-10-26 10:53:00
6:53 AM,32.0,24.1,73,30.48,10.0,NNE,12.7,-,N/A,,Overcast,20,2012-10-26 11:53:00
7:53 AM,32.0,24.1,73,30.52,10.0,NNE,10.4,-,N/A,,Overcast,30,2012-10-26 12:53:00
8:53 AM,32.0,24.1,73,30.56,10.0,North,12.7,-,N/A,,Overcast,360,2012-10-26 13:53:00
9:53 AM,33.1,23.0,66,30.58,10.0,North,10.4,-,N/A,,Overcast,10,2012-10-26 14:53:00
10:53 AM,34.0,24.1,67,30.61,10.0,NNW,10.4,-,N/A,,Overcast,340,2012-10-26 15:53:00
11:53 AM,36.0,23.0,59,30.60,10.0,NNW,11.5,-,N/A,,Overcast,340,2012-10-26 16:53:00
12:53 PM,37.9,23.0,55,30.57,10.0,NNE,5.8,18.4,N/A,,Mostly Cloudy,30,2012-10-26 17:53:00
1:14 PM,39.2,23.0,52,30.51,10.0,North,9.2,-,N/A,,Scattered Clouds,360,2012-10-26 18:14:00
1:53 PM,39.9,24.1,53,30.55,10.0,North,12.7,-,N/A,,Partly Cloudy,350,2012-10-26 18:53:00
2:53 PM,42.1,25.0,51,30.51,10.0,NNW,12.7,-,N/A,,Scattered Clouds,330,2012-10-26 19:53:00
3:53 PM,42.1,25.0,51,30.48,10.0,North,12.7,-,N/A,,Clear,350,2012-10-26 20:53:00
4:53 PM,45.0,25.0,46,30.46,10.0,NNW,13.8,-,N/A,,Clear,340,2012-10-26 21:53:00
5:53 PM,42.1,24.1,49,30.46,10.0,North,12.7,-,N/A,,Clear,350,2012-10-26 22:53:00
6:53 PM,36.0,24.1,62,30.47,10.0,North,8.1,-,N/A,,Clear,360,2012-10-26 23:53:00
7:53 PM,34.0,23.0,64,30.47,10.0,NNE,4.6,-,N/A,,Clear,20,2012-10-27 00:53:00
8:53 PM,34.0,23.0,64,30.47,10.0,NE,3.5,-,N/A,,Clear,40,2012-10-27 01:53:00
9:53 PM,30.9,21.9,69,30.47,10.0,North,4.6,-,N/A,,Clear,10,2012-10-27 02:53:00
10:53 PM,32.0,23.0,69,30.41,10.0,Calm,Calm,-,N/A,,Clear,0,2012-10-27 03:53:00
11:53 PM,28.0,21.0,75,30.46,10.0,Calm,Calm,-,N/A,,Clear,0,2012-10-27 04:53:00